Zacatecas Airport, Mexico

2:44 AM CST on December 17, 2017 (GMT -0600)
Gen Leobardo C Ruiz International

Weather History for MMZC - October, 2013

Change the Weather History Date:

Saturday, October 26, 2013

  Actual Average Record
Temperature  
Mean Temperature 55 °F -  
Max Temperature 71 °F 72 °F 80 °F (2010)
Min Temperature 39 °F 41 °F 30 °F (2007)
Degree Days  
Heating Degree Days 10    
Growing Degree Days 5 (Base 50)    
Moisture  
Dew Point 43 °F    
Average Humidity 64    
Maximum Humidity 87    
Minimum Humidity 33    
Precipitation  
Precipitation 0.00 in - - ()
Sea Level Pressure  
Sea Level Pressure 30.34 in    
Wind  
Wind Speed 6 mph ()    
Max Wind Speed 21 mph    
Max Gust Speed -    
Visibility 9.7 miles    
Events      
Averages and records for this station are not official NWS values.
T = Trace of Precipitation, MM = Missing Value Source: Averaged Metar Reports

Daily Weather History Graph

Daily Weather History Graph

Search for Another Location

Airport or City:

Trip Planner

Search our weather history database for the weather conditions in past years. The results will help you decide how hot, cold, wet, or windy it might be!

Date:

Astronomy

Oct. 26, 2013 Rise Set
Actual Time 7:52 AM CDT 7:16 PM CDT
Civil Twilight 7:29 AM CDT 7:39 PM CDT
Nautical Twilight 7:03 AM CDT 8:05 PM CDT
Astronomical Twilight 6:36 AM CDT 8:32 PM CDT
Moon 12:47 AM CDT (10/26) 2:04 PM CDT (10/26)
Length of Visible Light 12h 09m
Length of Day
11h 23m
Waning Gibbous, 53% of the Moon is Illuminated
Oct 26
Waning Gibbous
Oct 26
Last Quarter
Nov 3
New
Nov 9
First Quarter
Nov 17
Full

Hourly Weather History & Observations

Time (CDT) Temp. Windchill Dew Point Humidity Pressure Visibility Wind Dir Wind Speed Gust Speed Precip Events Conditions
12:49 AM 48.2 °F - 39.2 °F 71% 30.37 in 10.0 mi SSW 5.8 mph - N/A   Partly Cloudy
1:48 AM 48.2 °F - 42.8 °F 82% 30.36 in 10.0 mi South 6.9 mph - N/A   Partly Cloudy
2:48 AM 48.2 °F - 42.8 °F 82% 30.34 in 10.0 mi SSW 8.1 mph - N/A   Scattered Clouds
3:52 AM 42.8 °F 39.3 °F 37.4 °F 81% 30.34 in 10.0 mi North 5.8 mph - N/A   Scattered Clouds
4:54 AM 41.0 °F - 35.6 °F 81% 30.34 in 10.0 mi Calm Calm - N/A   Scattered Clouds
5:54 AM 41.0 °F 38.0 °F 37.4 °F 87% 30.34 in 10.0 mi ESE 4.6 mph - N/A   Scattered Clouds
7:41 AM 39.2 °F - 35.6 °F 87% 30.36 in 6.0 mi Calm Calm - N/A   Mostly Cloudy
8:42 AM 42.8 °F - 39.2 °F 87% 30.38 in 8.0 mi Calm Calm - N/A   Mostly Cloudy
9:41 AM 53.6 °F - 46.4 °F 77% 30.39 in 10.0 mi Calm Calm - N/A   Scattered Clouds
10:40 AM 62.6 °F - 46.4 °F 55% 30.39 in 10.0 mi SSE 5.8 mph - N/A   Scattered Clouds
11:40 AM 64.4 °F - 42.8 °F 45% 30.38 in 10.0 mi West 5.8 mph - N/A   Scattered Clouds
12:42 PM 69.8 °F - 42.8 °F 38% 30.36 in 10.0 mi WNW 11.5 mph - N/A   Scattered Clouds
1:45 PM 69.8 °F - 42.8 °F 38% 30.33 in 10.0 mi SSE 11.5 mph - N/A   Mostly Cloudy
3:53 PM 71.6 °F - 42.8 °F 35% 30.28 in 10.0 mi East 3.5 mph - N/A   Mostly Cloudy
5:04 PM 71.6 °F - 41.0 °F 33% 30.28 in 10.0 mi East 8.1 mph - N/A   Mostly Cloudy
5:47 PM 71.6 °F - 41.0 °F 33% 30.28 in 10.0 mi ESE 9.2 mph - N/A   Mostly Cloudy
6:42 PM 66.2 °F - 46.4 °F 49% 30.28 in 10.0 mi East 11.5 mph - N/A   Mostly Cloudy
7:52 PM 62.6 °F - 46.4 °F 55% 30.30 in 10.0 mi East 13.8 mph - N/A   Mostly Cloudy
8:45 PM 59.0 °F - 48.2 °F 67% 30.31 in 10.0 mi ESE 11.5 mph - N/A   Mostly Cloudy
9:41 PM 57.2 °F - 48.2 °F 72% 30.33 in 10.0 mi ESE 17.3 mph - N/A   Clear
10:40 PM 57.2 °F - 48.2 °F 72% 30.33 in 10.0 mi ESE 17.3 mph - N/A   Clear
11:40 PM 55.4 °F - 46.4 °F 72% 30.33 in 10.0 mi SE 20.7 mph - N/A   Clear